Location: Newark
(25.0000°N, 73.5000°E)
Time: 11:38:32
(UTC+00:00)

Altair - Pass Details

Date: 08 March 2021
Orbit: 1501 x 1683 km, 47.2° (Epoch: 15 April)

Event Time Altitude Azimuth Distance (km) Brightness Sun altitude
Enters shadow 19:09:29 - 314° (NW) 4,737 10.3 -69.5°
Rises 19:09:30 0° 314° (NW) 4,731 - -69.5°
Reaches altitude 10° 19:12:33 10° 316° (NW) 3,769 - -69.5°
Maximum altitude 19:22:11 77° 42° (NE) 1,656 - -69.5°
Drops below altitude 10° 19:32:11 10° 128° (SE) 3,900 - -69.2°
Sets 19:35:22 0° 130° (SE) 4,901 - -69.1°
